Weather in Zherdevka

Russia / Tambov Oblast     51°50′32″N   41°27′42″E
temp.,
°C
wind,
m/s
gust,
m/s
humid.,
%
clouds,
%
prec.,
mm/h
press.,
hPa
HPBL,
m
3 march, wed
wed300:000nw6109897 0.4 1008527
03:00−1nw5109397 0.4 1010398
06:00−2nnw6119575 0.1 1010559
09:00−1nnw8129387 0.3 1013847
12:00−2nnw7108681 0.1 1014853
15:00−2nw6108567 0.1 1016796
18:00−5wnw5128745 0.0 1017324
21:00−6w4119123 0.0 1018223
4 march, thu
thu400:00−3wsw5109352 0.0 1016337
03:00−2wsw6119276 0.1 1015650
06:00−1wsw71391100 0.1 1013840
09:00−1wsw9168996 0.1 1011583
12:00+1wsw8168940 0.0 1009679
15:00+1wsw8158525 0.0 1008804
18:000wsw6157772 0.0 1006471
21:000sw6168366 0.0 1005503
5 march, fri
fri500:00+1wsw5129193 0.0 1003463
03:00+2wsw7159796 0.4 1002551
06:00+2w61397100 0.1 1002474
09:00+1wnw51098100 0.5 1004471
12:000nw579799 0.1 1007606
15:00−1nnw458794 0.2 1009579
18:00−3nw239079 0.0 101145
21:00−3n119190 0.0 101321
6 march, sat
sat600:00−4nne2293100 0.0 101340
03:00−4nne2494100 0.0 1014160
06:00−5nne4792100 0.0 1014282
09:00−6n4684100 0.0 1015279
12:00−5n357796 0.0 1015409
15:00−4nnw347348 0.0 1015472
18:00−6nw11840 0.0 101521
21:00−6se128013 0.0 101623
7 march, sun
sun700:00−6ene2384100 0.0 101670
03:00−7n5893100 0.9 1017459
06:00−10wnw368536 0.1 1017220
09:00−7wsw6107821 0.1 1017663
12:00−4sw91368100 0.0 1014963
15:00−2sw101661100 0.0 10101235
18:00−2sw91863100 0.0 10061197
21:00−2wsw91872100 0.0 10031213